FW2530 Weather Reports


Display with metric or nautical units.
time (UTC)temp
F
wind
direction
speed
MPH
gust
MPH
rain 1hr
in
rain 24hr
in
rain mn
in
humidity
%
barometer
mb
20260502163005 44 8 6.0 15.0 0.00 0.00 0.00 60 1015.6
20260502162505 44 359 6.0 16.0 0.00 0.00 0.00 60 1015.6
20260502162005 44 10 5.0 13.0 0.00 0.00 0.00 61 1015.6
20260502161505 44 10 6.0 12.0 0.00 0.00 0.00 61 1015.6
20260502161005 44 352 7.0 16.0 0.00 0.00 0.00 61 1015.5
20260502160505 44 344 6.0 13.0 0.00 0.00 0.00 38 1015.6
20260502152006 44 17 7.0 17.0 0.00 0.00 0.00 61 1015.6
20260502151505 44 360 8.0 17.0 0.00 0.00 0.00 60 1015.6
20260502151005 45 2 7.0 19.0 0.00 0.00 0.00 61 1015.7
20260502150526 44 7 6.0 19.0 0.00 0.00 0.00 64 1015.4
20260502130505 41 6 6.0 13.0 0.00 0.00 0.00 70 1015.8
20260502123527 42 342 4.0 13.0 0.00 0.00 0.00 71 1015.7
20260502123005 42 357 4.0 12.0 0.00 0.00 0.00 72 1015.7
20260502122506 41 16 4.0 12.0 0.00 0.00 0.00 72 1015.7
20260502122005 41 2 4.0 13.0 0.00 0.00 0.00 73 1015.7
20260502121505 40 350 4.0 15.0 0.00 0.00 0.00 74 1015.7
20260502121005 40 357 4.0 12.0 0.00 0.00 0.00 75 1015.7
20260502120505 40 3 3.0 11.0 0.00 0.00 0.00 77 1015.8
20260502115526 38 330 3.0 8.0 0.00 0.00 0.00 79 1015.8
20260502115005 38 319 1.0 7.0 0.00 0.00 0.00 80 1015.8
20260502114526 37 310 2.0 5.0 0.00 0.00 0.00 81 1015.7
20260502114005 37 307 2.0 7.0 0.00 0.00 0.00 81 1015.8
20260502113506 36 321 1.0 4.0 0.00 0.00 0.00 82 1015.8
20260502113005 36 342 1.0 5.0 0.00 0.00 0.00 82 1015.7
20260502112526 35 353 0.0 1.0 0.00 0.00 0.00 82 1015.7
20260502112006 35 353 0.0 3.0 0.00 0.00 0.00 81 1015.7
20260502111505 35 352 0.0 1.0 0.00 0.00 0.00 82 1015.7
20260502111005 35 352 0.0 3.0 0.00 0.00 0.00 82 1015.6
20260502110505 35 352 0.0 3.0 0.00 0.00 0.00 82 1015.6
20260502110005 35 352 0.0 3.0 0.00 0.00 0.00 82 1015.4
20260502105506 35 352 0.0 3.0 0.00 0.00 0.00 82 1015.5
20260502105005 35 352 0.0 3.0 0.00 0.00 0.00 81 1015.4
20260502104526 35 352 0.0 3.0 0.00 0.00 0.00 81 1015.5
20260502104005 35 353 1.0 5.0 0.00 0.00 0.00 81 1015.5
20260502103526 35 353 1.0 5.0 0.00 0.00 0.00 81 1015.4
20260502103005 35 352 0.0 3.0 0.00 0.00 0.00 81 1015.3
20260502102527 35 352 0.0 3.0 0.00 0.00 0.00 82 1015.4
20260502102005 35 0 0.0 0.0 0.00 0.00 0.00 81 1015.3
20260502101526 35 352 0.0 0.0 0.00 0.00 0.00 81 1015.3
20260502101005 35 352 0.0 4.0 0.00 0.00 0.00 81 1015.4
20260502100505 35 352 1.0 3.0 0.00 0.00 0.00 82 1015.3
20260502091505 35 0 0.0 0.0 0.00 0.00 0.00 82 1015.1
20260502091004 34 0 0.0 0.0 0.00 0.00 0.00 82 1015.0
20260502090526 35 353 0.0 0.0 0.00 0.00 0.00 82 1015.0
20260502071526 35 0 0.0 0.0 0.00 0.00 0.00 83 1014.7
20260502071004 35 0 0.0 0.0 0.00 0.00 0.00 83 1014.8
20260502070505 35 0 0.0 0.0 0.00 0.00 0.00 83 1014.9
20260502070005 35 0 0.0 0.0 0.00 0.00 0.00 83 1015.0
20260502065505 35 0 0.0 0.0 0.00 0.00 0.00 83 1015.0
20260502065005 35 0 0.0 0.0 0.00 0.00 0.00 83 1015.0
20260502064505 35 0 0.0 0.0 0.00 0.00 0.00 83 1015.1
20260502064005 35 0 0.0 0.0 0.00 0.00 0.00 83 1015.0
20260502063505 35 0 0.0 0.0 0.00 0.00 0.00 83 1015.1
20260502063005 35 0 0.0 0.0 0.00 0.00 0.00 83 1015.2
20260502062505 35 0 0.0 0.0 0.00 0.00 0.00 83 1015.0
20260502062026 35 0 0.0 0.0 0.00 0.00 0.00 83 1015.1
20260502061505 35 0 0.0 0.0 0.00 0.00 0.00 83 1015.2
20260502061005 35 0 0.0 0.0 0.00 0.00 0.00 83 1015.3
20260502060505 35 0 0.0 0.0 0.00 0.00 0.00 83 1015.3
20260502060005 35 0 0.0 0.0 0.00 0.00 0.00 83 1015.3
20260502055505 35 0 0.0 0.0 0.00 0.00 0.00 83 1015.2
20260502055005 35 0 0.0 0.0 0.00 0.00 0.00 83 1015.0
20260502054505 35 348 0.0 0.0 0.00 0.00 0.00 83 1015.0
20260502054027 35 349 0.0 1.0 0.00 0.00 0.00 82 1015.2
20260502053504 35 349 1.0 4.0 0.00 0.00 0.00 82 1015.2
20260502053026 35 349 1.0 4.0 0.00 0.00 0.00 82 1015.3
20260502052505 35 348 0.0 4.0 0.00 0.00 0.00 82 1015.4
20260502052004 35 348 0.0 3.0 0.00 0.00 0.00 82 1015.5
20260502051526 35 348 0.0 1.0 0.00 0.00 0.00 81 1015.2
20260502051004 35 348 0.0 3.0 0.00 0.00 0.00 81 1015.1
20260502050505 35 348 0.0 3.0 0.00 0.00 0.00 81 1015.2
20260502050005 35 348 1.0 4.0 0.00 0.00 0.00 81 1015.4
20260502045505 34 349 2.0 5.0 0.00 0.00 0.00 81 1015.4
20260502045006 34 5 3.0 7.0 0.00 0.00 0.00 80 1015.3
20260502044505 34 24 2.0 7.0 0.00 0.00 0.00 80 1015.2
20260502044005 34 30 1.0 4.0 0.00 0.00 0.00 79 1014.9
20260502043505 34 29 1.0 5.0 0.00 0.00 0.00 78 1014.9
20260502043005 34 30 1.0 3.0 0.00 0.00 0.00 77 1015.1
20260502042504 34 30 0.0 3.0 0.00 0.00 0.00 75 1015.2
20260502042005 34 30 1.0 3.0 0.00 0.00 0.00 74 1015.1
20260502041526 34 30 1.0 4.0 0.00 0.00 0.00 74 1015.2
20260502041007 34 29 0.0 1.0 0.00 0.00 0.00 73 1015.1
20260502040526 34 30 0.0 0.0 0.00 0.00 0.00 73 1015.0
20260502040005 34 29 1.0 3.0 0.00 0.00 0.00 73 1015.0
20260502035505 35 29 1.0 4.0 0.00 0.00 0.00 72 1015.0
20260502035005 35 29 1.0 4.0 0.00 0.00 0.00 72 1015.0
20260502034504 35 29 1.0 4.0 0.00 0.00 0.00 72 1014.9
20260502034007 35 29 0.0 3.0 0.00 0.00 0.00 72 1015.0
20260502033505 35 30 0.0 1.0 0.00 0.00 0.00 71 1015.0
20260502033005 35 32 0.0 1.0 0.00 0.00 0.00 71 1015.0
20260502032504 35 30 0.0 3.0 0.00 0.00 0.00 71 1015.0
20260502032005 35 29 1.0 3.0 0.00 0.00 0.00 71 1015.0
20260502031505 35 30 1.0 3.0 0.00 0.00 0.00 71 1015.0
20260502031005 35 30 1.0 4.0 0.00 0.00 0.00 70 1015.1
20260502030504 35 30 1.0 3.0 0.00 0.00 0.00 70 1015.0
20260502030005 35 31 0.0 3.0 0.00 0.00 0.00 70 1015.0
20260502025505 35 31 0.0 3.0 0.00 0.00 0.00 70 1015.0
20260502025004 35 31 0.0 0.0 0.00 0.00 0.00 70 1014.9
20260502024505 36 31 0.0 1.0 0.00 0.00 0.00 70 1014.9
20260502024005 36 31 0.0 1.0 0.00 0.00 0.00 70 1014.9
20260502023505 36 31 0.0 1.0 0.00 0.00 0.00 70 1015.0
20260502023004 36 31 1.0 3.0 0.00 0.00 0.00 70 1014.9
20260502022505 36 31 1.0 3.0 0.00 0.00 0.00 70 1014.9
20260502022004 36 31 1.0 4.0 0.00 0.00 0.00 70 1014.9
20260502021526 36 31 2.0 4.0 0.00 0.00 0.00 69 1014.9
20260502021005 36 32 2.0 5.0 0.00 0.00 0.00 69 1015.0
20260502020504 37 32 2.0 4.0 0.00 0.00 0.00 69 1014.9
20260502020004 37 33 2.0 4.0 0.00 0.00 0.00 68 1014.9
20260502015504 37 33 2.0 4.0 0.00 0.00 0.00 68 1014.9
20260502015004 37 33 2.0 4.0 0.00 0.00 0.00 68 1014.8
20260502014504 37 32 2.0 4.0 0.00 0.00 0.00 67 1014.8
20260502014004 38 32 2.0 4.0 0.00 0.00 0.00 67 1014.7
20260502013526 38 32 1.0 4.0 0.00 0.00 0.00 66 1014.6
20260502013004 38 32 2.0 3.0 0.00 0.00 0.00 66 1014.6
20260502012504 38 33 2.0 5.0 0.00 0.00 0.00 66 1014.5
20260502012004 38 32 1.0 4.0 0.00 0.00 0.00 64 1014.5
20260502011505 39 32 1.0 5.0 0.00 0.00 0.00 64 1014.4
20260502011005 39 31 1.0 4.0 0.00 0.00 0.00 64 1014.4
20260502010526 39 31 2.0 5.0 0.00 0.00 0.00 63 1014.3
20260502010026 39 31 2.0 7.0 0.00 0.00 0.00 63 1014.1
20260502005526 39 32 3.0 7.0 0.00 0.00 0.00 62 1013.9
20260502005025 39 33 3.0 8.0 0.00 0.00 0.00 62 1014.0
20260502004505 40 33 3.0 8.0 0.00 0.00 0.00 62 1013.8
20260502004004 40 30 4.0 8.0 0.00 0.00 0.00 61 1013.8
20260502003504 40 26 4.0 12.0 0.00 0.00 0.00 61 1013.8
20260502003004 40 25 3.0 11.0 0.00 0.00 0.00 61 1013.8
20260502002504 40 20 4.0 7.0 0.00 0.00 0.00 60 1013.9
20260502002005 41 16 5.0 12.0 0.00 0.00 0.00 60 1013.8
20260502001504 41 19 4.0 11.0 0.00 0.00 0.00 59 1013.7
20260502001004 41 19 4.0 11.0 0.00 0.00 0.00 59 1013.6
20260502000505 41 17 6.0 13.0 0.00 0.00 0.00 58 1013.5
20260502000004 41 18 7.0 19.0 0.00 0.00 0.00 58 1013.6
20260501235504 42 18 7.0 16.0 0.00 0.00 0.00 58 1013.6
20260501235004 42 16 5.0 13.0 0.00 0.00 0.00 60 1013.5
20260501234505 42 16 4.0 17.0 0.00 0.00 0.00 61 1013.4
20260501234004 42 15 4.0 11.0 0.00 0.00 0.00 61 1013.3
20260501233504 43 14 4.0 9.0 0.00 0.00 0.00 61 1013.5
20260501233005 43 8 4.0 11.0 0.00 0.00 0.00 61 1013.5
20260501232504 43 357 4.0 12.0 0.00 0.00 0.00 61 1013.5
20260501232004 43 350 4.0 9.0 0.00 0.00 0.00 60 1013.5
20260501231504 44 2 5.0 13.0 0.00 0.00 0.00 59 1013.4
20260501231004 44 4 5.0 11.0 0.00 0.00 0.00 59 1013.5
20260501230504 44 357 4.0 17.0 0.00 0.00 0.00 59 1013.4
20260501230004 44 1 4.0 8.0 0.00 0.00 0.00 59 1013.3
20260501225525 44 4 5.0 13.0 0.00 0.00 0.00 58 1013.4
20260501225025 44 3 6.0 13.0 0.00 0.00 0.00 59 1013.4
20260501224505 44 360 7.0 13.0 0.00 0.00 0.00 59 1013.3
20260501224005 45 2 6.0 15.0 0.00 0.00 0.00 59 1013.4
20260501223505 45 14 4.0 12.0 0.00 0.00 0.00 61 1013.3
20260501223004 45 11 4.0 13.0 0.00 0.00 0.00 60 1013.3
20260501222504 46 13 5.0 11.0 0.00 0.00 0.00 58 1013.3
20260501222004 46 13 6.0 13.0 0.00 0.00 0.00 57 1013.2
20260501221526 47 11 7.0 19.0 0.00 0.00 0.00 57 1013.2
20260501221004 48 10 7.0 16.0 0.00 0.00 0.00 57 1013.2
20260501220504 48 359 6.0 15.0 0.00 0.00 0.00 57 1013.1
20260501220005 48 351 7.0 13.0 0.00 0.00 0.00 57 1013.0
20260501215504 48 351 7.0 15.0 0.00 0.00 0.00 55 1013.0
20260501215004 48 10 6.0 20.0 0.00 0.00 0.00 55 1012.9
20260501214504 48 10 7.0 15.0 0.00 0.00 0.00 56 1012.9
20260501214025 48 360 7.0 23.0 0.00 0.00 0.00 33 1012.9
20260501213504 49 1 7.0 13.0 0.00 0.00 0.00 56 1012.9
20260501213004 48 15 8.0 20.0 0.00 0.00 0.00 56 1012.8
20260501212504 49 12 8.0 16.0 0.00 0.00 0.00 56 1012.8
20260501212025 48 8 7.0 15.0 0.00 0.00 0.00 57 1012.7
20260501211504 48 16 7.0 15.0 0.00 0.00 0.00 59 1012.6
20260501211005 48 8 9.0 19.0 0.00 0.00 0.00 59 1012.6
20260501210504 47 5 8.0 19.0 0.00 0.00 0.00 60 1012.6
20260501210004 47 3 7.0 12.0 0.00 0.00 0.00 60 1012.6
20260501205504 47 360 8.0 15.0 0.00 0.00 0.00 59 1012.5
20260501205025 47 1 7.0 16.0 0.00 0.00 0.00 59 1012.6
20260501204525 47 359 5.0 15.0 0.00 0.00 0.00 60 1012.5
20260501204004 48 6 5.0 12.0 0.00 0.00 0.00 60 1012.4
20260501203525 48 11 7.0 15.0 0.00 0.00 0.00 59 1012.4
20260501203004 48 5 7.0 13.0 0.00 0.00 0.00 58 1012.5
20260501202504 48 1 6.0 13.0 0.00 0.00 0.00 57 1012.5
20260501202004 49 360 7.0 17.0 0.00 0.00 0.00 56 1012.4
20260501201525 49 2 7.0 17.0 0.00 0.00 0.00 56 1012.4
20260501201004 49 10 7.0 17.0 0.00 0.00 0.00 56 1012.4
20260501200504 50 6 7.0 17.0 0.00 0.00 0.00 56 1012.4
20260501200004 50 3 6.0 17.0 0.00 0.00 0.00 56 1012.4
20260501195504 50 11 6.0 12.0 0.00 0.00 0.00 55 1012.3
20260501195004 51 11 6.0 13.0 0.00 0.00 0.00 56 1012.3
20260501194525 51 3 7.0 15.0 0.00 0.00 0.00 55 1012.3
20260501194004 51 360 7.0 21.0 0.00 0.00 0.00 34 1012.2
20260501193504 51 353 7.0 15.0 0.00 0.00 0.00 56 1012.2
20260501193004 51 338 7.0 16.0 0.00 0.00 0.00 57 1012.1
20260501192504 51 354 6.0 19.0 0.00 0.00 0.00 57 1012.1
20260501192004 51 17 6.0 13.0 0.00 0.00 0.00 56 1012.1
20260501191504 51 10 8.0 23.0 0.00 0.00 0.00 55 1012.1
20260501191004 51 4 7.0 17.0 0.00 0.00 0.00 53 1012.1
20260501190504 51 2 7.0 15.0 0.00 0.00 0.00 55 1012.2
20260501190025 51 351 7.0 13.0 0.00 0.00 0.00 55 1012.2
20260501185504 51 4 6.0 17.0 0.00 0.00 0.00 57 1012.1
20260501185004 51 28 5.0 20.0 0.00 0.00 0.00 56 1012.0
20260501184505 51 24 5.0 11.0 0.00 0.00 0.00 57 1012.0
20260501184004 51 5 6.0 16.0 0.00 0.00 0.00 56 1011.9
20260501183504 52 348 6.0 13.0 0.00 0.00 0.00 58 1011.9
20260501183004 52 349 6.0 16.0 0.00 0.00 0.00 35 1011.9
20260501182525 52 1 6.0 17.0 0.00 0.00 0.00 58 1011.8
20260501182004 51 10 6.0 19.0 0.00 0.00 0.00 57 1011.8
20260501181504 51 16 6.0 15.0 0.00 0.00 0.00 57 1011.8
20260501181004 51 16 7.0 15.0 0.00 0.00 0.00 56 1011.7
20260501180504 51 2 7.0 16.0 0.00 0.00 0.00 57 1011.8
20260501180004 51 3 7.0 15.0 0.00 0.00 0.00 56 1011.7
20260501175504 52 16 5.0 17.0 0.00 0.00 0.00 57 1011.6
20260501175004 51 18 5.0 12.0 0.00 0.00 0.00 57 1011.6
20260501174504 51 7 6.0 17.0 0.00 0.00 0.00 57 1011.8
20260501174004 51 347 6.0 16.0 0.00 0.00 0.00 59 1011.8
20260501173504 51 341 6.0 16.0 0.00 0.00 0.00 58 1011.8
20260501173004 51 4 7.0 17.0 0.00 0.00 0.00 60 1011.9
20260501172004 50 12 6.0 19.0 0.00 0.00 0.00 60 1011.9
20260501171526 50 12 5.0 15.0 0.00 0.00 0.00 61 1011.8
20260501171004 50 15 5.0 13.0 0.00 0.00 0.00 61 1011.8
20260501170504 50 18 5.0 11.0 0.00 0.00 0.00 61 1011.7
20260501170025 50 21 5.0 15.0 0.00 0.00 0.00 62 1011.9
20260501165505 50 15 5.0 15.0 0.00 0.00 0.00 62 1011.9
20260501165025 50 13 6.0 15.0 0.00 0.00 0.00 63 1012.0
20260501164504 50 15 6.0 15.0 0.00 0.00 0.00 63 1012.0
20260501164004 50 9 5.0 15.0 0.00 0.00 0.00 62 1012.1
20260501163504 50 6 5.0 13.0 0.00 0.00 0.00 63 1012.1